Regional Weather Roundup
Issued by NWS Goodland, KS

Home | Current Version | Previous Version | Graphics & Text | Print | Product List | Glossary On
Versions: 1 2 3 4 5 6 7 8 9 10 11 12 13 14 15 16 17 18 19 20 21 22 23 24 25 26 27 28 29 30 31 32 33 34 35 36 37 38 39 40 41 42 43 44 45 46 47 48 49 50
009
ASUS43 KGLD 251159
RWRGLD

GOODLAND FORECAST AREA HOURLY WEATHER ROUNDUP
NATIONAL WEATHER SERVICE GOODLAND KS
600 AM MDT TUE JUL 25 2017

...OFFICIAL OBSERVATIONS...

CITY           SKY/WX    TMP DP  RH WIND       PRES   REMARKS
GOODLAND KS    CLEAR     68  65  90 S13       30.02S
HILL CITY KS   CLEAR     71  63  75 S7        30.01R
IMPERIAL NEB   PTCLDY    70  62  76 S6        29.98S
MCCOOK NEB     CLEAR     74  64  71 CALM      29.97S
AKRON CO       CLEAR     67  60  78 S10       30.03S
BURLINGTON CO  CLEAR     69  64  84 S15       30.04S
LIMON CO       CLOUDY    59  59 100 CALM      30.11R
$$

...UNOFFICIAL OBSERVATIONS...

CITY           SKY/WX    TMP DP  RH WIND       PRES   REMARKS
LENORA KS        N/A     69  32  25 MISG        N/A
NORTON KS      CLEAR     70  57  64 S6        30.00R
SHARON SPRINGS   N/A     68  64  86 S12         N/A
TRENTON NEB      N/A     73  32  22 SW5         N/A
KIT CARSON CO    N/A     67  62  84 CALM        N/A
YUMA CO        FAIR      64  61  88 S8        30.00S
$$




USA.gov is the U.S. government's official web portal to all federal, state and local government web resources and services.